Find Starlink 5177

NORAD ID: 54090 Int'l Des: 2022-136 Owner: SPXS Country: US Constellation: starlink operational
LEOCIRCULAR

Current View

Loading 3D Globe...

About Starlink 5177

Description loading...

Upcoming Passes

Passes for default location (London). Set your location on the main map for personalized predictions.

Altitude History

Loading altitude history...

Two-Line Element Set

1 54090U 22136AR 26150.88226116 .00000754 00000-0 65446-4 0 9995
2 54090 53.1984 325.0420 0001219 83.8943 276.2187 15.08840175199397
Epoch: May 30, 2026 • Age: 16 hours

Current Status

Altitude 540.1 km
Velocity 7.60 km/s
Sub-Earth Point 23.45°N, 106.22°W
Launch Date Oct 20, 2022
Age 3.6 years
Type internet

Technical Details

Classification Payload
Mass 305.00 kg
Dry Mass 290.00 kg
Total Mass 305.00 kg
Length 0.20 m
Diameter 2.80 m
Span 9.00 m
Shape Box + pan
Manufacturer SPXS
Bus Type Starlink
Phase Status In Orbit
Owner/State SPXS/US

Most Searched